Temperature
10 9 9 9 10 10 11 11 11 11 11 11 10 10 10 10 9 9 9 9 9 9 8 8 7 7 6 6 6 6 6 6 6 6 6 6 5 5 5 5 5 5 5 5
10 9 9 10 10 11 11 10 11 11 11 10 9 9 10 10 9 9 9 9 9 8 8 7 7 6 6 6 6 6 6 6 6 6 6 5 5 5 5 5 4 4 4 4
9 9 10 10 10 10 10 10 9 9 10 10 9 8 9 9 10 9 9 9 8 8 8 7 6 6 6 5 6 6 6 6 6 5 5 5 5 4 4 4 4 4 4 4
8 9 9 9 9 9 9 9 9 9 8 8 9 7 9 9 9 8 8 8 8 8 7 7 6 6 5 5 5 5 5 5 5 5 5 5 4 4 4 4 4 3 3 3
8 8 8 8 8 9 8 9 9 9 8 7 8 7 8 9 8 8 7 7 7 7 7 6 6 6 5 5 5 5 5 4 4 4 4 4 4 4 3 3 3 3 3 3
7 8 8 8 8 8 8 8 8 8 7 7 8 7 7 8 8 8 7 7 7 6 6 6 5 5 5 5 4 4 4 4 4 4 3 3 3 3 3 3 2 2 2 2
7 7 7 7 7 7 7 7 7 7 7 7 8 7 7 8 7 7 6 6 6 5 5 5 5 5 4 4 4 4 3 3 3 3 3 3 3 2 2 2 2 2 2 1
6 6 7 7 7 6 7 7 7 7 7 8 7 7 6 7 6 6 6 6 5 4 4 4 4 4 4 4 3 3 3 3 2 2 2 2 2 2 2 2 2 2 1 1
6 6 6 6 7 6 6 6 7 7 7 7 7 7 7 6 5 5 5 5 4 4 4 4 3 3 3 3 3 2 2 2 2 1 1 1 1 1 1 1 1 1 1 1
6 5 5 5 6 6 6 6 6 6 6 7 8 7 6 5 4 4 4 4 4 3 3 3 3 2 2 2 2 2 2 1 1 1 1 1 1 1 1 1 0 0 0 -0
6 5 4 5 4 5 5 5 5 6 6 6 6 6 5 5 4 3 3 3 3 3 2 2 2 2 1 1 1 1 1 1 1 0 0 0 0 0 0 -0 -0 -0 -1 -1
5 5 4 5 5 5 5 5 5 5 5 5 5 4 4 3 3 3 3 3 2 2 2 1 1 1 1 0 0 0 -0 -0 -0 -0 -0 -0 -0 -1 -1 -1 -1 -1 -1 -1
4 4 4 4 4 3 4 4 4 4 4 4 4 4 3 2 3 2 2 2 2 1 1 1 0 0 -0 -0 -0 -1 -1 -1 -1 -1 -1 -1 -1 -1 -1 -1 -1 -2 -2 -2
4 3 3 4 4 3 2 3 3 3 3 3 4 3 2 2 1 1 1 1 1 0 -0 -0 -1 -1 -1 -1 -1 -1 -1 -1 -1 -2 -2 -2 -2 -2 -2 -2 -2 -2 -2 -3
3 2 3 3 3 3 2 2 2 2 2 2 2 2 2 1 0 1 1 0 -0 -1 -1 -1 -1 -2 -2 -2 -2 -2 -2 -2 -2 -2 -2 -2 -2 -3 -3 -3 -3 -3 -3 -3
2 2 2 2 3 2 2 1 2 1 1 1 1 1 1 0 0 -0 -1 -1 -2 -2 -2 -2 -2 -2 -2 -3 -2 -3 -3 -3 -3 -3 -3 -3 -3 -3 -3 -3 -3 -4 -4 -4
1 1 1 2 2 2 0 0 1 0 -0 0 0 -0 -1 -1 -1 -2 -2 -2 -2 -2 -2 -3 -3 -3 -3 -3 -3 -3 -3 -3 -3 -3 -4 -4 -4 -4 -4 -4 -4 -4 -4 -5
0 0 1 1 1 0 1 0 0 -0 -1 -1 -1 -1 -2 -2 -2 -2 -2 -3 -3 -3 -3 -3 -3 -4 -4 -4 -4 -4 -4 -4 -4 -4 -4 -5 -5 -5 -5 -5 -5 -5 -5 -5
0 0 0 0 0 0 1 -1 -1 -1 -2 -2 -2 -2 -3 -3 -2 -3 -3 -3 -3 -4 -4 -4 -4 -4 -4 -4 -4 -4 -4 -5 -5 -5 -5 -5 -5 -5 -5 -5 -5 -6 -6 -6
-1 -1 -1 -0 0 0 -0 -2 -1 -1 -2 -3 -3 -3 -4 -3 -3 -4 -4 -4 -4 -4 -4 -4 -4 -5 -5 -5 -5 -5 -5 -5 -5 -5 -6 -6 -6 -6 -6 -6 -6 -6 -6 -7
-2 -2 -2 -1 -1 -1 -2 -3 -2 -1 -2 -3 -3 -4 -4 -5 -4 -5 -5 -5 -5 -5 -5 -5 -5 -5 -5 -6 -5 -6 -6 -6 -6 -6 -6 -6 -6 -6 -7 -7 -7 -7 -7 -7
-3 -3 -3 -2 -2 -2 -4 -4 -3 -3 -3 -3 -4 -4 -5 -5 -5 -5 -6 -6 -6 -6 -6 -6 -6 -6 -6 -6 -6 -6 -6 -7 -6 -7 -7 -7 -7 -7 -7 -7 -7 -8 -8 -8
-3 -3 -3 -3 -2 -3 -4 -4 -4 -4 -4 -4 -5 -5 -5 -6 -6 -6 -7 -7 -7 -7 -7 -7 -7 -7 -7 -7 -7 -7 -7 -7 -7 -7 -7 -8 -8 -8 -8 -8 -8 -8 -8 -9
-4 -3 -3 -4 -4 -4 -4 -4 -4 -5 -5 -5 -6 -6 -6 -7 -7 -7 -8 -8 -8 -8 -8 -8 -7 -7 -7 -7 -7 -8 -8 -8 -8 -8 -8 -8 -8 -8 -9 -9 -9 -9 -9 -9
-4 -5 -5 -5 -5 -5 -5 -5 -5 -5 -6 -6 -6 -7 -7 -7 -8 -8 -8 -8 -9 -9 -8 -8 -8 -8 -8 -8 -8 -8 -8 -8 -9 -9 -9 -9 -9 -9 -9 -9 -9 -10 -10 -10
-5 -6 -6 -5 -5 -6 -6 -6 -6 -6 -7 -7 -7 -7 -8 -8 -8 -9 -9 -9 -9 -9 -9 -9 -9 -9 -9 -9 -9 -9 -9 -9 -9 -9 -9 -9 -10 -10 -10 -10 -10 -10 -10 -10
Wind_Speed
5 5 7 8 9 8 7 8 9 6 4 7 10 10 7 7 8 8 7 7 8 8 8 8 9 9 10 9 10 10 10 9 8 6 5 5 4 3 3 4 6 6 6 6
4 7 7 6 6 7 8 9 9 5 3 5 7 9 7 7 8 7 7 7 7 7 8 9 9 9 10 10 10 10 10 9 8 6 5 4 5 4 3 4 5 6 6 5
7 4 4 5 5 7 8 8 7 6 5 6 5 7 5 4 5 5 6 5 6 7 8 9 10 10 9 9 10 10 9 9 8 8 6 6 4 4 3 3 3 4 6 5
5 5 4 6 6 6 7 4 5 5 4 4 4 5 6 5 5 5 6 5 6 6 7 8 9 10 10 9 9 9 9 8 7 8 8 8 6 5 4 4 3 4 5 5
3 3 4 5 5 5 3 3 5 6 5 4 5 5 5 5 5 5 5 5 5 5 6 7 8 9 9 9 9 8 9 9 8 7 7 7 6 5 4 5 5 4 4 5
5 3 2 2 2 3 2 4 5 4 3 5 7 6 5 3 4 3 3 3 3 4 5 5 6 8 8 8 8 8 9 8 8 7 7 7 7 7 7 6 5 4 3 3
4 5 3 2 2 2 2 1 2 3 4 5 5 5 4 1 3 3 3 3 4 4 4 5 7 7 8 9 9 8 9 8 8 8 7 7 7 7 7 6 5 5 3 3
3 4 4 3 3 2 5 4 3 3 3 2 3 5 2 3 4 4 4 4 4 3 3 4 5 6 7 8 8 8 8 8 8 7 6 6 6 5 4 5 5 5 4 3
2 2 0 1 1 1 3 4 3 3 3 2 3 3 1 4 4 5 4 4 4 3 3 4 4 5 6 7 7 8 8 8 7 7 6 6 5 5 5 5 4 4 4 3
3 2 1 1 1 2 2 2 1 2 3 3 3 3 2 1 2 3 3 3 2 3 4 4 4 5 5 5 6 7 7 7 7 6 6 5 5 5 5 5 5 4 4 4
4 2 1 1 3 4 3 2 3 3 3 2 2 2 2 2 2 2 2 2 2 3 3 4 4 5 5 6 6 6 6 6 6 6 5 5 4 4 5 4 4 4 4 4
3 1 3 3 0 1 2 2 3 2 3 3 2 2 3 4 4 3 3 2 3 3 3 4 4 5 5 5 5 5 6 6 5 6 5 5 4 4 4 4 4 4 4 4
2 1 2 1 1 2 1 2 2 3 2 3 3 3 1 4 5 4 3 3 4 4 4 4 4 4 4 5 5 5 5 5 5 5 5 5 5 4 4 4 4 4 4 4
2 2 3 3 3 1 3 4 3 3 3 4 4 4 2 3 4 4 3 3 3 3 3 3 3 3 4 4 4 5 5 5 5 5 5 5 4 4 4 4 4 3 3 4
1 2 2 4 3 1 3 4 3 4 4 4 4 4 5 3 2 2 2 3 4 3 2 3 3 3 3 3 3 4 4 4 5 5 4 4 4 4 4 4 3 3 3 3
1 2 2 4 3 2 3 4 5 5 4 5 5 6 4 3 3 3 3 3 2 2 2 2 2 3 2 2 3 3 4 4 5 5 4 4 4 4 3 3 3 3 2 2
2 1 1 3 1 2 3 4 3 1 1 2 4 4 3 4 4 3 3 2 1 1 2 1 1 2 2 2 3 3 4 4 5 5 4 4 4 4 3 3 3 3 2 2
2 1 2 2 1 4 3 2 1 1 1 1 1 3 3 3 3 3 3 2 2 2 2 1 1 1 2 2 3 3 4 4 5 4 4 3 3 3 3 3 2 2 2 2
0 2 1 1 2 4 1 2 2 1 2 2 3 4 4 3 3 4 6 4 3 2 2 1 1 2 2 3 3 4 4 4 4 4 3 3 3 3 3 2 2 2 2 1
3 0 2 2 3 4 2 3 4 1 2 4 3 3 3 3 2 2 4 5 4 4 3 2 2 3 3 3 3 4 4 4 3 3 3 2 2 2 2 2 1 1 1 1
1 1 2 3 4 3 2 3 2 1 4 4 3 2 2 1 1 2 4 5 4 4 4 4 3 3 3 3 4 4 3 2 2 3 3 2 2 2 2 1 1 1 1 1
3 2 3 2 3 5 2 2 2 2 2 3 3 2 2 2 2 3 4 4 4 4 4 4 3 3 3 3 4 4 2 2 3 3 3 2 2 1 1 2 1 1 1 1
3 4 3 4 4 0 2 2 1 2 3 3 3 3 2 2 2 3 3 4 4 4 4 4 3 3 3 3 3 3 2 2 3 3 2 2 2 1 1 1 1 1 1 1
1 1 2 2 3 1 1 2 3 3 2 3 3 2 2 1 1 2 2 3 3 3 3 3 3 3 3 3 3 3 3 3 3 2 2 2 2 1 1 0 0 1 1 1
2 1 1 3 2 3 1 2 2 3 3 3 3 3 2 2 2 2 2 3 3 3 3 3 3 3 3 4 3 3 3 3 3 2 2 2 1 1 1 0 0 1 1 2
2 3 3 4 2 2 2 2 2 2 2 2 2 3 3 3 2 2 2 3 3 3 3 3 3 3 3 3 3 3 2 3 2 2 2 1 1 0 1 0 1 2 2 3
Wind_Direction
199 215 219 223 229 250 275 272 264 260 231 234 237 248 243 213 218 215 203 199 196 198 178 165 162 157 156 157 159 160 159 153 146 145 144 138 134 122 99 93 98 97 93 89
217 231 241 254 253 257 265 273 275 269 233 240 252 257 252 224 220 209 202 204 195 190 172 163 160 161 165 164 164 163 162 158 155 152 146 138 132 121 111 98 99 102 96 91
227 240 244 249 255 254 256 261 275 278 279 252 268 274 239 233 224 210 205 199 192 191 179 169 167 167 163 164 166 166 161 159 154 143 133 131 119 117 115 120 111 100 103 96
240 246 243 240 248 255 254 267 277 271 263 260 212 268 243 221 222 219 212 196 192 187 176 167 167 168 168 165 156 154 154 153 149 146 150 153 156 157 152 143 130 111 111 102
246 238 244 236 245 259 253 294 274 258 243 271 233 243 260 195 224 225 206 194 188 178 173 170 168 167 161 155 152 153 152 151 149 149 154 154 149 142 135 135 133 123 104 104
256 254 266 262 263 267 268 278 260 250 230 250 219 211 265 203 212 190 172 160 162 152 149 149 151 146 145 144 146 151 153 153 153 153 154 154 152 146 145 145 143 136 124 104
240 231 225 248 240 221 225 239 249 230 217 235 193 197 242 130 90 104 122 123 118 121 136 140 144 148 147 148 150 153 154 154 154 154 155 153 152 153 156 154 150 144 138 132
257 242 193 225 230 223 221 220 224 243 241 253 186 209 217 108 88 73 79 103 100 95 118 132 144 148 149 150 150 153 154 153 152 152 150 147 148 153 153 150 150 149 151 147
277 264 229 308 268 240 225 232 263 285 276 263 225 195 179 93 78 77 76 88 100 104 118 128 132 135 139 146 152 154 151 149 149 147 143 144 146 144 146 142 139 138 137 139
311 285 251 304 233 225 248 258 236 237 250 254 238 209 213 127 92 86 90 81 80 97 106 116 120 121 126 133 137 139 144 146 142 141 144 142 140 144 140 137 139 139 135 133
312 275 252 240 216 202 175 204 239 250 261 245 260 273 12 83 93 103 100 100 96 100 103 105 109 111 114 115 123 131 134 135 137 140 138 134 135 133 132 137 139 139 133 131
336 288 250 246 266 337 210 208 195 212 260 244 254 260 29 61 72 87 94 79 82 92 93 92 100 106 110 116 124 131 133 136 137 136 135 134 132 128 128 132 133 133 137 134
331 281 290 295 356 16 313 279 253 254 270 243 228 237 62 36 40 53 70 77 80 84 86 84 88 98 109 115 120 126 128 126 124 127 131 132 134 135 136 134 131 133 139 139
339 256 227 251 292 279 275 286 263 225 227 250 233 243 310 354 9 16 31 74 77 82 92 95 91 88 95 107 117 122 124 124 127 129 133 136 141 141 138 134 131 134 138 141
358 266 269 285 297 290 277 284 249 224 236 238 261 270 299 331 339 9 27 60 67 63 80 95 102 99 95 97 105 113 118 121 128 131 132 131 127 126 125 127 129 128 132 137
312 270 295 275 253 272 305 294 257 247 253 253 271 289 326 1 25 24 27 57 52 30 42 76 92 107 108 110 116 118 121 125 126 130 130 125 124 125 126 128 128 128 135 140
222 237 263 261 265 335 295 281 239 196 254 231 250 280 353 12 18 16 15 31 20 11 12 41 93 128 126 125 129 132 130 126 125 125 126 125 126 131 131 129 131 142 152 151
205 216 234 271 338 248 235 46 67 191 317 353 334 352 11 1 349 22 35 23 9 13 11 14 72 97 93 99 105 116 119 120 123 123 125 126 127 131 130 130 139 146 148 164
256 178 217 235 250 263 270 10 16 267 298 2 316 333 349 1 7 20 21 24 14 9 15 20 66 99 95 94 107 117 117 118 119 123 123 125 129 134 137 143 148 146 148 157
7 38 192 228 243 244 272 329 332 358 286 358 357 338 343 12 351 322 9 21 20 20 33 55 77 83 86 82 101 115 118 121 126 128 126 124 127 133 141 148 145 143 150 160
5 305 214 231 239 258 314 322 13 143 278 337 358 360 16 356 290 337 17 24 23 24 37 53 72 83 84 85 98 107 109 115 116 110 109 111 115 129 141 142 141 140 144 137
183 192 208 216 231 257 2 85 145 245 347 13 18 19 22 7 7 23 29 29 26 27 37 47 60 75 79 89 104 105 99 80 89 101 106 111 115 119 120 135 137 134 153 174
192 194 200 200 214 172 122 129 63 26 3 3 10 17 35 15 7 27 29 25 27 30 33 42 56 67 68 79 100 109 84 82 90 98 110 115 103 95 103 138 154 162 177 190
233 247 217 243 251 272 117 50 19 19 17 6 14 19 33 23 21 33 30 28 29 31 36 42 55 66 61 61 73 86 82 86 95 106 109 107 106 100 101 157 178 169 196 211
255 183 228 246 291 334 2 13 4 15 25 20 19 21 29 52 46 50 39 30 26 31 36 47 54 65 60 58 59 63 74 88 91 91 86 80 85 99 87 56 294 253 234 232
229 201 213 240 233 244 286 3 18 26 9 17 23 18 29 49 50 45 42 35 33 33 36 43 49 56 57 59 53 52 67 87 92 81 68 61 63 66 72 73 1 334 311 299
Height
1462 1465 1464 1463 1463 1462 1461 1460 1459 1458 1459 1461 1461 1460 1460 1461 1462 1462 1464 1466 1468 1471 1473 1476 1478 1480 1483 1486 1488 1490 1493 1496 1499 1502 1504 1507 1509 1511 1513 1515 1516 1518 1519 1520
1462 1462 1460 1460 1460 1461 1461 1461 1459 1458 1458 1459 1460 1458 1456 1456 1457 1458 1460 1462 1465 1468 1470 1472 1474 1476 1479 1481 1484 1487 1490 1492 1496 1499 1502 1504 1507 1509 1511 1513 1514 1516 1517 1518
1458 1459 1458 1459 1459 1460 1460 1462 1461 1462 1459 1458 1460 1459 1454 1453 1454 1456 1457 1459 1462 1464 1466 1469 1471 1473 1475 1478 1481 1483 1486 1489 1492 1496 1499 1502 1504 1506 1508 1510 1512 1513 1515 1516
1458 1457 1458 1458 1458 1459 1460 1460 1460 1461 1464 1463 1461 1465 1453 1451 1453 1454 1455 1456 1459 1461 1464 1466 1467 1470 1472 1475 1478 1481 1484 1486 1489 1492 1495 1497 1499 1502 1504 1507 1509 1511 1512 1514
1457 1457 1457 1457 1458 1459 1460 1459 1460 1459 1462 1464 1461 1465 1455 1449 1451 1451 1452 1454 1456 1458 1460 1462 1465 1467 1470 1472 1475 1478 1481 1484 1487 1489 1492 1494 1497 1499 1502 1504 1506 1508 1510 1511
1457 1457 1457 1457 1458 1458 1459 1460 1459 1459 1462 1467 1457 1462 1456 1450 1448 1449 1451 1452 1454 1456 1458 1460 1463 1465 1467 1470 1473 1476 1478 1481 1484 1487 1489 1492 1494 1496 1498 1500 1503 1505 1506 1508
1457 1457 1457 1458 1459 1460 1460 1464 1465 1464 1464 1458 1451 1457 1456 1448 1448 1448 1450 1452 1453 1455 1457 1458 1460 1462 1464 1467 1470 1473 1476 1478 1481 1484 1486 1489 1492 1494 1496 1498 1500 1502 1503 1505
1459 1458 1456 1457 1458 1460 1460 1461 1465 1463 1458 1452 1452 1455 1453 1448 1448 1449 1450 1452 1453 1455 1456 1457 1459 1461 1463 1465 1468 1470 1473 1476 1479 1481 1484 1486 1489 1491 1494 1496 1498 1499 1501 1503
1460 1459 1457 1456 1456 1458 1459 1460 1459 1460 1456 1458 1452 1449 1449 1448 1449 1450 1451 1452 1454 1455 1456 1457 1459 1460 1462 1464 1466 1469 1471 1474 1476 1479 1481 1484 1487 1489 1491 1493 1495 1497 1499 1501
1459 1462 1459 1458 1457 1458 1460 1460 1463 1463 1459 1456 1448 1447 1453 1452 1452 1453 1453 1454 1455 1456 1457 1457 1458 1460 1461 1463 1465 1467 1470 1472 1474 1477 1479 1482 1484 1487 1489 1491 1492 1494 1496 1498
1460 1463 1462 1460 1460 1459 1462 1462 1461 1459 1456 1458 1456 1459 1453 1452 1453 1454 1454 1455 1455 1456 1457 1457 1458 1459 1461 1462 1464 1466 1468 1470 1472 1475 1477 1480 1482 1484 1486 1488 1490 1491 1493 1495
1462 1463 1463 1459 1458 1458 1458 1458 1461 1465 1460 1457 1461 1465 1455 1454 1453 1454 1455 1455 1456 1456 1456 1457 1458 1459 1460 1461 1463 1465 1467 1469 1471 1473 1475 1478 1480 1482 1483 1485 1487 1489 1491 1492
1464 1465 1465 1461 1462 1463 1461 1460 1460 1461 1462 1460 1461 1464 1456 1455 1455 1455 1456 1456 1456 1456 1457 1457 1458 1459 1460 1461 1463 1464 1466 1467 1469 1471 1473 1475 1477 1479 1480 1482 1484 1486 1488 1489
1463 1465 1466 1465 1462 1463 1465 1463 1462 1463 1465 1462 1458 1459 1458 1458 1457 1457 1457 1456 1456 1457 1457 1457 1458 1458 1459 1460 1462 1463 1464 1466 1468 1469 1471 1473 1475 1476 1478 1480 1481 1483 1485 1487
1464 1466 1463 1462 1460 1461 1462 1463 1463 1463 1461 1462 1459 1459 1458 1458 1458 1458 1457 1457 1457 1457 1457 1457 1458 1458 1459 1460 1461 1462 1463 1465 1466 1468 1469 1471 1473 1474 1476 1477 1479 1481 1482 1484
1465 1467 1465 1464 1460 1460 1463 1462 1462 1462 1463 1462 1460 1461 1458 1458 1458 1458 1457 1457 1457 1457 1457 1457 1458 1458 1458 1459 1459 1461 1462 1463 1464 1466 1467 1469 1471 1472 1474 1475 1477 1478 1480 1481
1466 1467 1467 1463 1460 1461 1467 1464 1461 1463 1463 1462 1462 1462 1459 1458 1458 1458 1458 1457 1457 1457 1456 1457 1457 1457 1457 1458 1458 1459 1460 1462 1463 1464 1466 1467 1469 1470 1472 1473 1474 1476 1477 1478
1465 1466 1467 1465 1466 1471 1464 1460 1459 1460 1461 1461 1460 1460 1459 1459 1458 1457 1457 1457 1456 1456 1455 1455 1456 1456 1456 1457 1457 1458 1459 1460 1461 1462 1464 1466 1467 1469 1470 1471 1472 1473 1474 1475
1463 1465 1467 1468 1468 1463 1461 1461 1461 1462 1462 1461 1460 1459 1459 1458 1456 1456 1456 1456 1455 1455 1454 1454 1454 1454 1455 1455 1456 1457 1457 1459 1460 1461 1463 1464 1466 1467 1468 1469 1470 1471 1472 1473
1466 1465 1468 1467 1467 1465 1464 1462 1459 1461 1463 1461 1459 1459 1459 1457 1459 1459 1457 1456 1455 1454 1453 1452 1452 1453 1453 1454 1455 1455 1456 1457 1458 1460 1461 1463 1464 1465 1466 1467 1468 1469 1470 1470
1472 1471 1471 1470 1468 1465 1465 1462 1460 1465 1464 1461 1459 1459 1459 1459 1460 1459 1457 1455 1454 1453 1452 1451 1451 1451 1452 1453 1453 1454 1455 1456 1457 1458 1460 1461 1462 1463 1464 1465 1466 1467 1467 1468
1471 1472 1472 1470 1469 1469 1465 1463 1465 1464 1461 1460 1459 1459 1459 1458 1457 1456 1455 1454 1453 1452 1451 1451 1450 1451 1451 1452 1452 1453 1453 1455 1456 1456 1458 1459 1460 1461 1462 1462 1463 1464 1465 1465
1466 1467 1466 1467 1467 1464 1462 1462 1462 1462 1461 1460 1459 1458 1458 1457 1456 1455 1454 1453 1452 1451 1451 1450 1450 1450 1450 1451 1451 1451 1452 1453 1454 1455 1456 1457 1457 1459 1459 1460 1461 1461 1462 1462
1464 1463 1464 1464 1462 1462 1462 1461 1461 1461 1460 1459 1459 1458 1457 1455 1454 1453 1453 1452 1451 1451 1450 1450 1449 1449 1449 1450 1450 1451 1452 1452 1453 1454 1454 1455 1456 1456 1457 1458 1459 1459 1459 1460
1463 1463 1463 1463 1462 1461 1460 1460 1460 1459 1459 1458 1457 1456 1455 1454 1453 1452 1451 1451 1451 1450 1450 1450 1449 1449 1449 1449 1450 1450 1451 1451 1452 1452 1453 1453 1454 1455 1455 1456 1457 1457 1457 1458
1462 1463 1464 1461 1460 1460 1459 1459 1458 1457 1456 1456 1455 1454 1453 1453 1452 1451 1450 1450 1450 1450 1449 1449 1449 1449 1449 1449 1449 1449 1449 1450 1450 1451 1451 1452 1452 1453 1453 1454 1455 1455 1456 1456